Time,TemperatureF,DewpointF,PressureIn,WindDirection,WindDirectionDegrees,WindSpeedMPH,WindSpeedGustMPH,Humidity,HourlyPrecipIn,Conditions,Clouds,dailyrainin,SoftwareType,DateUTC
2013-05-10 00:00:00,60.2,59.3,29.84,ESE,103,1.0,3.0,97,0.08,,---,0.27,VWS V14.01,2013-05-10 04:00:00,
2013-05-10 00:01:00,60.3,59.5,29.84,ESE,105,1.0,2.0,97,0.05,,---,0.00,VWS V14.01,2013-05-10 04:01:00,
2013-05-10 00:07:00,60.2,59.3,29.84,ESE,118,2.0,3.0,97,0.05,,---,0.00,VWS V14.01,2013-05-10 04:07:00,
2013-05-10 00:12:00,60.2,59.3,29.84,East,97,1.0,3.0,97,0.06,,---,0.01,VWS V14.01,2013-05-10 04:12:00,
2013-05-10 00:17:00,60.1,59.2,29.83,ESE,103,2.0,3.0,97,0.06,,---,0.01,VWS V14.01,2013-05-10 04:17:00,
2013-05-10 00:22:00,60.1,59.2,29.83,ESE,103,1.0,3.0,97,0.07,,---,0.02,VWS V14.01,2013-05-10 04:22:00,
2013-05-10 00:27:00,60.1,59.2,29.83,ESE,105,0.0,4.0,97,0.07,,---,0.02,VWS V14.01,2013-05-10 04:27:00,
2013-05-10 00:30:00,60.1,59.2,29.83,ESE,114,1.0,4.0,97,0.07,,---,0.02,VWS V14.01,2013-05-10 04:30:00,
2013-05-10 00:38:00,60.0,59.2,29.83,ESE,117,0.0,3.0,97,0.05,,---,0.03,VWS V14.01,2013-05-10 04:38:00,
2013-05-10 00:43:00,60.0,59.4,29.83,ESE,105,1.0,3.0,98,0.05,,---,0.03,VWS V14.01,2013-05-10 04:43:00,
2013-05-10 00:48:00,59.9,59.3,29.82,SE,125,1.0,3.0,98,0.05,,---,0.03,VWS V14.01,2013-05-10 04:48:00,
2013-05-10 00:53:00,59.9,59.3,29.82,ESE,117,2.0,4.0,98,0.05,,---,0.03,VWS V14.01,2013-05-10 04:53:00,
2013-05-10 00:59:00,59.8,59.2,29.82,ESE,110,2.0,4.0,98,0.05,,---,0.03,VWS V14.01,2013-05-10 04:59:00,
2013-05-10 01:00:00,59.9,59.3,29.82,ESE,103,2.0,4.0,98,0.05,,---,0.03,VWS V14.01,2013-05-10 05:00:00,
2013-05-10 01:04:00,59.8,59.2,29.81,SE,132,1.0,3.0,98,0.03,,---,0.03,VWS V14.01,2013-05-10 05:04:00,
2013-05-10 01:09:00,59.8,59.2,29.81,SE,131,1.0,3.0,98,0.03,,---,0.03,VWS V14.01,2013-05-10 05:09:00,
2013-05-10 01:14:00,59.7,59.1,29.81,ESE,123,1.0,4.0,98,0.03,,---,0.03,VWS V14.01,2013-05-10 05:14:00,
2013-05-10 01:19:00,59.7,59.1,29.81,ESE,120,1.0,4.0,98,0.03,,---,0.03,VWS V14.01,2013-05-10 05:19:00,
2013-05-10 01:25:00,59.6,59.0,29.81,SE,125,2.0,4.0,98,0.03,,---,0.03,VWS V14.01,2013-05-10 05:25:00,
2013-05-10 01:30:00,59.6,59.0,29.80,ESE,121,0.0,4.0,98,0.03,,---,0.03,VWS V14.01,2013-05-10 05:30:00,
2013-05-10 01:35:00,59.6,59.0,29.80,SE,124,0.0,0.0,98,0.01,,---,0.03,VWS V14.01,2013-05-10 05:35:00,
2013-05-10 01:40:00,59.6,59.0,29.80,ESE,121,1.0,3.0,98,0.02,,---,0.04,VWS V14.01,2013-05-10 05:40:00,
2013-05-10 01:45:00,59.6,59.0,29.80,ESE,123,0.0,3.0,98,0.02,,---,0.04,VWS V14.01,2013-05-10 05:45:00,
2013-05-10 01:51:00,59.6,59.0,29.80,ESE,123,0.0,3.0,98,0.03,,---,0.05,VWS V14.01,2013-05-10 05:51:00,
2013-05-10 01:56:00,59.7,59.1,29.80,SE,128,0.0,3.0,98,0.04,,---,0.06,VWS V14.01,2013-05-10 05:56:00,
2013-05-10 02:00:00,59.7,59.1,29.80,East,92,1.0,3.0,98,0.05,,---,0.07,VWS V14.01,2013-05-10 06:00:00,
2013-05-10 02:01:00,59.7,59.1,29.79,East,92,0.0,1.0,98,0.05,,---,0.08,VWS V14.01,2013-05-10 06:01:00,
2013-05-10 02:06:00,59.7,59.1,29.79,ESE,120,0.0,2.0,98,0.07,,---,0.10,VWS V14.01,2013-05-10 06:06:00,
2013-05-10 02:12:00,59.7,59.1,29.79,East,95,1.0,3.0,98,0.10,,---,0.13,VWS V14.01,2013-05-10 06:12:00,
2013-05-10 02:17:00,59.6,59.0,29.78,ESE,106,2.0,3.0,98,0.11,,---,0.14,VWS V14.01,2013-05-10 06:17:00,
2013-05-10 02:22:00,59.6,59.0,29.78,ESE,117,2.0,3.0,98,0.13,,---,0.16,VWS V14.01,2013-05-10 06:22:00,
2013-05-10 02:27:00,59.6,59.0,29.78,ESE,118,7.0,7.0,98,0.13,,---,0.16,VWS V14.01,2013-05-10 06:27:00,
2013-05-10 02:30:00,59.6,59.0,29.78,East,101,3.0,7.0,98,0.13,,---,0.16,VWS V14.01,2013-05-10 06:30:00,
2013-05-10 02:32:00,59.6,59.0,29.78,SSE,164,2.0,3.0,98,0.14,,---,0.17,VWS V14.01,2013-05-10 06:32:00,
2013-05-10 02:38:00,59.6,59.0,29.78,SE,131,1.0,3.0,98,0.14,,---,0.17,VWS V14.01,2013-05-10 06:38:00,
2013-05-10 02:43:00,59.6,59.0,29.77,SE,145,0.0,3.0,98,0.14,,---,0.17,VWS V14.01,2013-05-10 06:43:00,
2013-05-10 02:48:00,59.6,59.0,29.77,SE,143,0.0,3.0,98,0.14,,---,0.17,VWS V14.01,2013-05-10 06:48:00,
2013-05-10 02:53:00,59.7,59.1,29.77,East,96,2.0,3.0,98,0.14,,---,0.17,VWS V14.01,2013-05-10 06:53:00,
2013-05-10 02:58:00,59.7,59.1,29.77,ESE,122,1.0,4.0,98,0.14,,---,0.17,VWS V14.01,2013-05-10 06:58:00,
2013-05-10 03:00:00,59.7,59.1,29.77,ESE,123,2.0,4.0,98,0.14,,---,0.17,VWS V14.01,2013-05-10 07:00:00,
2013-05-10 03:04:00,59.7,59.1,29.77,ESE,121,2.0,5.0,98,0.10,,---,0.17,VWS V14.01,2013-05-10 07:04:00,
2013-05-10 03:09:00,59.7,59.1,29.76,ESE,114,1.0,5.0,98,0.10,,---,0.17,VWS V14.01,2013-05-10 07:09:00,
2013-05-10 03:14:00,59.8,59.5,29.76,SSE,154,1.0,5.0,99,0.10,,---,0.17,VWS V14.01,2013-05-10 07:14:00,
2013-05-10 03:19:00,59.8,59.5,29.76,SSE,149,0.0,5.0,99,0.10,,---,0.17,VWS V14.01,2013-05-10 07:19:00,
2013-05-10 03:24:00,59.8,59.5,29.75,East,98,2.0,5.0,99,0.10,,---,0.17,VWS V14.01,2013-05-10 07:24:00,
2013-05-10 03:30:00,59.8,59.5,29.75,ESE,114,0.0,5.0,99,0.10,,---,0.17,VWS V14.01,2013-05-10 07:30:00,
2013-05-10 03:35:00,59.8,59.5,29.75,ESE,114,0.0,0.0,99,0.01,,---,0.17,VWS V14.01,2013-05-10 07:35:00,
2013-05-10 03:40:00,59.8,59.5,29.75,East,96,0.0,0.0,99,0.01,,---,0.17,VWS V14.01,2013-05-10 07:40:00,
2013-05-10 03:45:00,59.8,59.5,29.75,ESE,104,2.0,3.0,99,0.01,,---,0.17,VWS V14.01,2013-05-10 07:45:00,
2013-05-10 03:50:00,59.9,59.6,29.75,SSE,149,1.0,4.0,99,0.01,,---,0.17,VWS V14.01,2013-05-10 07:50:00,
2013-05-10 03:56:00,59.9,59.6,29.75,SSE,150,0.0,4.0,99,0.01,,---,0.17,VWS V14.01,2013-05-10 07:56:00,
2013-05-10 04:00:00,59.9,59.6,29.75,SSE,151,1.0,4.0,99,0.01,,---,0.17,VWS V14.01,2013-05-10 08:00:00,
2013-05-10 04:01:00,59.9,59.6,29.75,SSE,150,0.0,1.0,99,0.00,,---,0.17,VWS V14.01,2013-05-10 08:01:00,
2013-05-10 04:06:00,59.9,59.6,29.75,ESE,113,1.0,3.0,99,0.00,,---,0.17,VWS V14.01,2013-05-10 08:06:00,
2013-05-10 04:11:00,60.0,59.7,29.76,SSE,155,2.0,3.0,99,0.00,,---,0.17,VWS V14.01,2013-05-10 08:11:00,
2013-05-10 04:16:00,60.1,59.8,29.76,South,188,2.0,4.0,99,0.00,,---,0.17,VWS V14.01,2013-05-10 08:16:00,
2013-05-10 04:22:00,60.2,59.9,29.76,SE,143,3.0,7.0,99,0.00,,---,0.17,VWS V14.01,2013-05-10 08:22:00,
2013-05-10 04:27:00,60.2,59.9,29.76,SE,133,2.0,7.0,99,0.00,,---,0.17,VWS V14.01,2013-05-10 08:27:00,
2013-05-10 04:30:00,60.3,60.0,29.76,SE,134,1.0,9.0,99,0.00,,---,0.17,VWS V14.01,2013-05-10 08:30:00,
2013-05-10 04:32:00,60.3,60.0,29.76,SE,138,4.0,7.0,99,0.00,,---,0.17,VWS V14.01,2013-05-10 08:32:00,
2013-05-10 04:37:00,60.4,60.1,29.75,SW,224,3.0,7.0,99,0.00,,---,0.17,VWS V14.01,2013-05-10 08:37:00,
2013-05-10 04:42:00,60.5,60.2,29.76,East,96,1.0,7.0,99,0.00,,---,0.17,VWS V14.01,2013-05-10 08:42:00,
2013-05-10 04:48:00,60.6,60.3,29.75,SSW,202,0.0,7.0,99,0.00,,---,0.17,VWS V14.01,2013-05-10 08:48:00,
2013-05-10 04:53:00,60.6,60.3,29.75,SE,134,1.0,7.0,99,0.00,,---,0.17,VWS V14.01,2013-05-10 08:53:00,
2013-05-10 04:58:00,60.7,60.4,29.75,SW,218,1.0,7.0,99,0.00,,---,0.17,VWS V14.01,2013-05-10 08:58:00,
2013-05-10 05:00:00,60.7,60.4,29.75,ESE,108,1.0,7.0,99,0.00,,---,0.17,VWS V14.01,2013-05-10 09:00:00,
2013-05-10 05:03:00,60.7,60.4,29.75,SSW,202,1.0,3.0,99,0.00,,---,0.17,VWS V14.01,2013-05-10 09:03:00,
2013-05-10 05:09:00,60.7,60.4,29.75,SSW,197,0.0,3.0,99,0.00,,---,0.17,VWS V14.01,2013-05-10 09:09:00,
2013-05-10 05:14:00,60.7,60.4,29.75,SSW,198,1.0,3.0,99,0.00,,---,0.17,VWS V14.01,2013-05-10 09:14:00,
2013-05-10 05:19:00,60.8,60.5,29.75,SSE,167,1.0,3.0,99,0.00,,---,0.17,VWS V14.01,2013-05-10 09:19:00,
2013-05-10 05:24:00,60.8,60.5,29.74,SSW,195,0.0,4.0,99,0.00,,---,0.17,VWS V14.01,2013-05-10 09:24:00,
2013-05-10 05:29:00,60.8,60.5,29.74,SSE,154,0.0,4.0,99,0.00,,---,0.17,VWS V14.01,2013-05-10 09:29:00,
2013-05-10 05:30:00,60.8,60.5,29.74,SSE,152,1.0,4.0,99,0.00,,---,0.17,VWS V14.01,2013-05-10 09:30:00,
2013-05-10 05:35:00,60.8,60.5,29.75,SE,125,1.0,2.0,99,0.00,,---,0.17,VWS V14.01,2013-05-10 09:35:00,
2013-05-10 05:40:00,60.8,60.5,29.75,SSW,200,4.0,7.0,99,0.00,,---,0.17,VWS V14.01,2013-05-10 09:40:00,
2013-05-10 05:45:00,60.8,60.5,29.74,SSW,202,1.0,7.0,99,0.00,,---,0.17,VWS V14.01,2013-05-10 09:45:00,
2013-05-10 05:50:00,60.9,60.6,29.74,East,86,5.0,7.0,99,0.00,,---,0.17,VWS V14.01,2013-05-10 09:50:00,
2013-05-10 05:55:00,60.9,60.6,29.74,SE,131,2.0,7.0,99,0.00,,---,0.17,VWS V14.01,2013-05-10 09:55:00,
2013-05-10 06:00:00,61.0,60.7,29.74,SSE,162,2.0,7.0,99,0.00,,---,0.17,VWS V14.01,2013-05-10 10:00:00,
2013-05-10 06:01:00,61.0,60.7,29.74,SSE,148,2.0,3.0,99,0.00,,---,0.17,VWS V14.01,2013-05-10 10:01:00,
2013-05-10 06:06:00,61.0,60.7,29.74,SSW,207,3.0,4.0,99,0.00,,---,0.17,VWS V14.01,2013-05-10 10:06:00,
2013-05-10 06:11:00,61.0,60.4,29.74,SSW,196,4.0,5.0,98,0.00,,---,0.17,VWS V14.01,2013-05-10 10:11:00,
2013-05-10 06:16:00,61.0,60.4,29.74,SW,228,2.0,9.0,98,0.00,,---,0.17,VWS V14.01,2013-05-10 10:16:00,
2013-05-10 06:21:00,61.0,60.4,29.74,SSW,207,3.0,9.0,98,0.00,,---,0.17,VWS V14.01,2013-05-10 10:21:00,
2013-05-10 06:27:00,61.0,60.4,29.74,SSE,167,3.0,9.0,98,0.00,,---,0.17,VWS V14.01,2013-05-10 10:27:00,
2013-05-10 06:30:00,61.0,60.4,29.74,SSE,167,2.0,10.0,98,0.00,,---,0.17,VWS V14.01,2013-05-10 10:30:00,
2013-05-10 06:32:00,61.0,60.4,29.74,South,170,1.0,2.0,98,0.00,,---,0.17,VWS V14.01,2013-05-10 10:32:00,
2013-05-10 06:37:00,61.0,60.2,29.74,SW,224,1.0,6.0,97,0.00,,---,0.17,VWS V14.01,2013-05-10 10:37:00,
2013-05-10 06:42:00,61.0,60.2,29.74,ESE,114,2.0,7.0,97,0.00,,---,0.17,VWS V14.01,2013-05-10 10:42:00,
2013-05-10 06:47:00,61.0,60.2,29.74,WSW,240,1.0,7.0,97,0.00,,---,0.17,VWS V14.01,2013-05-10 10:47:00,
2013-05-10 06:53:00,60.9,60.0,29.75,SE,137,0.0,7.0,97,0.00,,---,0.17,VWS V14.01,2013-05-10 10:53:00,
2013-05-10 06:58:00,60.9,60.0,29.75,SSW,208,6.0,8.0,97,0.00,,---,0.17,VWS V14.01,2013-05-10 10:58:00,
2013-05-10 07:00:00,60.9,60.0,29.75,SSW,203,1.0,8.0,97,0.00,,---,0.17,VWS V14.01,2013-05-10 11:00:00,
2013-05-10 07:03:00,60.9,60.0,29.75,SW,226,4.0,5.0,97,0.00,,---,0.17,VWS V14.01,2013-05-10 11:03:00,
2013-05-10 07:08:00,61.0,60.2,29.75,South,187,2.0,9.0,97,0.00,,---,0.17,VWS V14.01,2013-05-10 11:08:00,
2013-05-10 07:13:00,61.0,60.2,29.75,South,190,0.0,9.0,97,0.00,,---,0.17,VWS V14.01,2013-05-10 11:13:00,
2013-05-10 07:19:00,61.1,60.2,29.74,ENE,58,1.0,9.0,97,0.00,,---,0.17,VWS V14.01,2013-05-10 11:19:00,
2013-05-10 07:24:00,61.2,60.3,29.75,ESE,108,1.0,9.0,97,0.00,,---,0.17,VWS V14.01,2013-05-10 11:24:00,
2013-05-10 07:29:00,61.2,60.3,29.75,South,179,2.0,9.0,97,0.00,,---,0.17,VWS V14.01,2013-05-10 11:29:00,
2013-05-10 07:30:00,61.2,60.3,29.75,SE,127,1.0,9.0,97,0.00,,---,0.17,VWS V14.01,2013-05-10 11:30:00,
2013-05-10 07:34:00,61.2,60.3,29.75,South,181,3.0,4.0,97,0.00,,---,0.17,VWS V14.01,2013-05-10 11:34:00,
2013-05-10 07:40:00,61.2,60.0,29.75,WSW,253,9.0,9.0,96,0.00,,---,0.17,VWS V14.01,2013-05-10 11:40:00,
2013-05-10 07:45:00,61.2,60.0,29.75,SSE,148,4.0,9.0,96,0.00,,---,0.17,VWS V14.01,2013-05-10 11:45:00,
2013-05-10 07:50:00,61.2,60.0,29.76,South,170,2.0,9.0,96,0.00,,---,0.17,VWS V14.01,2013-05-10 11:50:00,
2013-05-10 07:55:00,61.2,59.8,29.76,SSE,155,1.0,9.0,95,0.00,,---,0.17,VWS V14.01,2013-05-10 11:55:00,
2013-05-10 08:00:00,61.2,59.8,29.76,WNW,303,5.0,9.0,95,0.00,,---,0.17,VWS V14.01,2013-05-10 12:00:00,
2013-05-10 08:06:00,60.7,59.0,29.77,NW,314,12.0,12.0,94,0.00,,---,0.17,VWS V14.01,2013-05-10 12:06:00,
2013-05-10 08:11:00,57.9,55.6,29.77,NW,321,8.0,12.0,92,0.00,,---,0.17,VWS V14.01,2013-05-10 12:11:00,
2013-05-10 08:16:00,56.2,54.5,29.77,WNW,296,6.0,12.0,94,0.00,,---,0.17,VWS V14.01,2013-05-10 12:16:00,
2013-05-10 08:21:00,55.2,54.1,29.77,WNW,285,5.0,12.0,96,0.00,,---,0.17,VWS V14.01,2013-05-10 12:21:00,
2013-05-10 08:26:00,54.3,52.9,29.78,WNW,295,5.0,12.0,95,0.00,,---,0.17,VWS V14.01,2013-05-10 12:26:00,
2013-05-10 08:30:00,53.3,51.9,29.78,NNW,336,7.0,12.0,95,0.00,,---,0.17,VWS V14.01,2013-05-10 12:30:00,
2013-05-10 08:32:00,53.0,51.6,29.78,NW,308,8.0,8.0,95,0.00,,---,0.17,VWS V14.01,2013-05-10 12:32:00,
2013-05-10 08:37:00,52.1,51.0,29.79,North,354,4.0,9.0,96,0.00,,---,0.17,VWS V14.01,2013-05-10 12:37:00,
2013-05-10 08:42:00,51.3,50.2,29.79,West,281,3.0,9.0,96,0.00,,---,0.17,VWS V14.01,2013-05-10 12:42:00,
2013-05-10 08:47:00,50.5,49.4,29.79,WNW,284,7.0,11.0,96,0.00,,---,0.17,VWS V14.01,2013-05-10 12:47:00,
2013-05-10 08:52:00,49.9,49.1,29.79,WNW,283,7.0,11.0,97,0.00,,---,0.17,VWS V14.01,2013-05-10 12:52:00,
2013-05-10 08:58:00,49.4,48.6,29.78,NNW,328,2.0,11.0,97,0.00,,---,0.17,VWS V14.01,2013-05-10 12:58:00,
2013-05-10 09:00:00,49.2,48.4,29.79,NW,312,3.0,11.0,97,0.00,,---,0.17,VWS V14.01,2013-05-10 13:00:00,
2013-05-10 09:03:00,48.9,48.1,29.79,NW,307,5.0,7.0,97,0.00,,---,0.17,VWS V14.01,2013-05-10 13:03:00,
2013-05-10 09:08:00,48.4,47.6,29.80,WNW,293,3.0,13.0,97,0.00,,---,0.17,VWS V14.01,2013-05-10 13:08:00,
2013-05-10 09:13:00,48.0,47.2,29.80,WSW,257,7.0,13.0,97,0.00,,---,0.17,VWS V14.01,2013-05-10 13:13:00,
2013-05-10 09:18:00,47.7,47.2,29.80,West,264,6.0,13.0,98,0.00,,---,0.17,VWS V14.01,2013-05-10 13:18:00,
2013-05-10 09:24:00,47.4,46.9,29.80,SW,225,3.0,13.0,98,0.00,,---,0.17,VWS V14.01,2013-05-10 13:24:00,
2013-05-10 09:29:00,47.2,46.7,29.80,NNE,29,2.0,13.0,98,0.00,,---,0.17,VWS V14.01,2013-05-10 13:29:00,
2013-05-10 09:30:00,47.1,46.6,29.81,NW,312,4.0,13.0,98,0.00,,---,0.17,VWS V14.01,2013-05-10 13:30:00,
2013-05-10 09:34:00,46.9,46.4,29.80,WNW,292,3.0,10.0,98,0.00,,---,0.17,VWS V14.01,2013-05-10 13:34:00,
2013-05-10 09:39:00,47.0,46.5,29.81,WNW,290,0.0,10.0,98,0.00,,---,0.17,VWS V14.01,2013-05-10 13:39:00,
2013-05-10 09:44:00,46.7,46.2,29.81,NW,305,4.0,11.0,98,0.00,,---,0.17,VWS V14.01,2013-05-10 13:44:00,
2013-05-10 09:50:00,46.6,46.1,29.81,NW,305,4.0,12.0,98,0.00,,---,0.17,VWS V14.01,2013-05-10 13:50:00,
2013-05-10 09:55:00,46.3,45.8,29.81,WNW,287,13.0,13.0,98,0.00,,---,0.17,VWS V14.01,2013-05-10 13:55:00,
2013-05-10 10:00:00,46.0,45.5,29.81,WSW,245,7.0,13.0,98,0.00,,---,0.17,VWS V14.01,2013-05-10 14:00:00,
2013-05-10 10:05:00,46.0,45.5,29.81,WSW,257,4.0,8.0,98,0.00,,---,0.17,VWS V14.01,2013-05-10 14:05:00,
2013-05-10 10:10:00,46.0,45.5,29.81,WNW,297,5.0,9.0,98,0.00,,---,0.17,VWS V14.01,2013-05-10 14:10:00,
2013-05-10 10:16:00,46.2,45.9,29.81,SW,232,3.0,9.0,99,0.00,,---,0.17,VWS V14.01,2013-05-10 14:16:00,
2013-05-10 10:21:00,46.7,46.4,29.81,WNW,291,3.0,9.0,99,0.00,,---,0.17,VWS V14.01,2013-05-10 14:21:00,
2013-05-10 10:26:00,46.6,46.1,29.81,NW,314,2.0,11.0,98,0.00,,---,0.17,VWS V14.01,2013-05-10 14:26:00,
2013-05-10 10:30:00,46.8,46.3,29.81,West,262,10.0,11.0,98,0.00,,---,0.17,VWS V14.01,2013-05-10 14:30:00,
2013-05-10 10:31:00,46.7,46.2,29.81,WNW,300,5.0,10.0,98,0.00,,---,0.17,VWS V14.01,2013-05-10 14:31:00,
2013-05-10 10:37:00,46.9,46.4,29.81,WNW,288,8.0,10.0,98,0.00,,---,0.17,VWS V14.01,2013-05-10 14:37:00,
2013-05-10 10:42:00,47.0,46.5,29.81,West,263,12.0,12.0,98,0.00,,---,0.17,VWS V14.01,2013-05-10 14:42:00,
2013-05-10 10:47:00,47.0,46.2,29.81,WSW,245,8.0,13.0,97,0.00,,---,0.17,VWS V14.01,2013-05-10 14:47:00,
2013-05-10 10:52:00,47.1,46.3,29.81,NW,321,3.0,13.0,97,0.00,,---,0.17,VWS V14.01,2013-05-10 14:52:00,
2013-05-10 10:57:00,47.3,46.5,29.81,NW,309,7.0,14.0,97,0.00,,---,0.17,VWS V14.01,2013-05-10 14:57:00,
2013-05-10 11:00:00,47.4,46.3,29.81,NW,308,7.0,14.0,96,0.00,,---,0.17,VWS V14.01,2013-05-10 15:00:00,
2013-05-10 11:03:00,47.5,46.4,29.81,West,273,6.0,9.0,96,0.00,,---,0.17,VWS V14.01,2013-05-10 15:03:00,
2013-05-10 11:08:00,47.8,47.0,29.81,West,264,5.0,9.0,97,0.00,,---,0.17,VWS V14.01,2013-05-10 15:08:00,
2013-05-10 11:13:00,47.7,46.3,29.81,NW,326,6.0,11.0,95,0.00,,---,0.17,VWS V14.01,2013-05-10 15:13:00,
2013-05-10 11:18:00,47.8,46.4,29.81,NW,309,12.0,12.0,95,0.00,,---,0.17,VWS V14.01,2013-05-10 15:18:00,
2013-05-10 11:23:00,48.2,47.1,29.81,West,276,5.0,12.0,96,0.00,,---,0.17,VWS V14.01,2013-05-10 15:23:00,
2013-05-10 11:29:00,48.3,46.7,29.82,NW,308,4.0,13.0,94,0.00,,---,0.17,VWS V14.01,2013-05-10 15:29:00,
2013-05-10 11:30:00,48.2,46.6,29.82,NE,53,2.0,13.0,94,0.00,,---,0.17,VWS V14.01,2013-05-10 15:30:00,
2013-05-10 11:34:00,48.4,47.0,29.82,West,262,9.0,13.0,95,0.00,,---,0.17,VWS V14.01,2013-05-10 15:34:00,
2013-05-10 11:39:00,48.5,47.1,29.82,NW,309,4.0,15.0,95,0.00,,---,0.17,VWS V14.01,2013-05-10 15:39:00,
2013-05-10 11:44:00,48.7,47.0,29.82,WNW,283,8.0,15.0,94,0.00,,---,0.17,VWS V14.01,2013-05-10 15:44:00,
2013-05-10 11:49:00,48.6,47.0,29.83,ENE,63,2.0,15.0,94,0.00,,---,0.17,VWS V14.01,2013-05-10 15:49:00,
2013-05-10 11:55:00,48.9,47.2,29.83,West,274,6.0,15.0,94,0.00,,---,0.17,VWS V14.01,2013-05-10 15:55:00,
2013-05-10 12:00:00,48.8,47.4,29.83,SW,232,4.0,15.0,95,0.00,,---,0.17,VWS V14.01,2013-05-10 16:00:00,
2013-05-10 12:05:00,48.6,46.7,29.84,WNW,298,6.0,9.0,93,0.00,,---,0.17,VWS V14.01,2013-05-10 16:05:00,
2013-05-10 12:10:00,48.2,46.3,29.83,NW,321,3.0,11.0,93,0.00,,---,0.17,VWS V14.01,2013-05-10 16:10:00,
2013-05-10 12:15:00,47.9,46.3,29.83,NW,311,2.0,11.0,94,0.00,,---,0.17,VWS V14.01,2013-05-10 16:15:00,
2013-05-10 12:21:00,48.0,46.4,29.83,SW,235,5.0,11.0,94,0.00,,---,0.17,VWS V14.01,2013-05-10 16:21:00,
2013-05-10 12:26:00,48.5,47.1,29.83,West,274,8.0,11.0,95,0.00,,---,0.17,VWS V14.01,2013-05-10 16:26:00,
2013-05-10 12:30:00,48.4,46.5,29.83,WSW,250,3.0,11.0,93,0.00,,---,0.17,VWS V14.01,2013-05-10 16:30:00,
2013-05-10 12:31:00,48.4,46.8,29.83,West,264,5.0,6.0,94,0.00,,---,0.17,VWS V14.01,2013-05-10 16:31:00,
2013-05-10 12:36:00,48.5,46.9,29.83,West,266,4.0,11.0,94,0.00,,---,0.17,VWS V14.01,2013-05-10 16:36:00,
2013-05-10 12:42:00,48.7,47.0,29.84,NW,326,6.0,11.0,94,0.00,,---,0.17,VWS V14.01,2013-05-10 16:42:00,
2013-05-10 12:47:00,48.1,46.2,29.84,West,260,6.0,13.0,93,0.00,,---,0.17,VWS V14.01,2013-05-10 16:47:00,
2013-05-10 12:52:00,47.7,45.8,29.84,West,260,3.0,13.0,93,0.00,,---,0.17,VWS V14.01,2013-05-10 16:52:00,
2013-05-10 12:57:00,47.1,45.5,29.84,WNW,286,9.0,13.0,94,0.00,,---,0.17,VWS V14.01,2013-05-10 16:57:00,
2013-05-10 13:00:00,46.9,45.5,29.84,NW,316,1.0,13.0,95,0.00,,---,0.17,VWS V14.01,2013-05-10 17:00:00,
2013-05-10 13:02:00,46.9,45.5,29.84,WSW,250,2.0,10.0,95,0.00,,---,0.17,VWS V14.01,2013-05-10 17:02:00,
2013-05-10 13:08:00,47.0,45.7,29.84,North,6,3.0,12.0,95,0.00,,---,0.17,VWS V14.01,2013-05-10 17:08:00,
2013-05-10 13:13:00,46.9,45.5,29.84,West,281,3.0,12.0,95,0.00,,---,0.17,VWS V14.01,2013-05-10 17:13:00,
2013-05-10 13:18:00,47.1,46.0,29.84,NW,325,4.0,12.0,96,0.00,,---,0.17,VWS V14.01,2013-05-10 17:18:00,
2013-05-10 13:23:00,47.0,45.9,29.84,WNW,283,6.0,12.0,96,0.00,,---,0.17,VWS V14.01,2013-05-10 17:23:00,
2013-05-10 13:28:00,47.1,46.3,29.84,NW,304,9.0,12.0,97,0.00,,---,0.17,VWS V14.01,2013-05-10 17:28:00,
2013-05-10 13:30:00,47.1,46.3,29.84,WNW,295,7.0,12.0,97,0.00,,---,0.17,VWS V14.01,2013-05-10 17:30:00,
2013-05-10 13:34:00,47.2,46.4,29.84,NW,318,5.0,12.0,97,0.00,,---,0.17,VWS V14.01,2013-05-10 17:34:00,
2013-05-10 13:39:00,47.6,47.1,29.84,NNW,330,4.0,12.0,98,0.00,,---,0.17,VWS V14.01,2013-05-10 17:39:00,
2013-05-10 13:44:00,47.5,46.7,29.84,WSW,249,3.0,12.0,97,0.00,,---,0.17,VWS V14.01,2013-05-10 17:44:00,
2013-05-10 13:49:00,47.4,46.6,29.84,SW,218,4.0,12.0,97,0.00,,---,0.17,VWS V14.01,2013-05-10 17:49:00,
2013-05-10 13:54:00,47.1,46.3,29.84,NNW,338,8.0,15.0,97,0.00,,---,0.17,VWS V14.01,2013-05-10 17:54:00,
2013-05-10 14:00:00,47.1,46.3,29.84,NNW,344,11.0,15.0,97,0.00,,---,0.17,VWS V14.01,2013-05-10 18:00:00,
2013-05-10 14:05:00,47.0,46.2,29.85,WNW,288,8.0,9.0,97,0.00,,---,0.17,VWS V14.01,2013-05-10 18:05:00,
2013-05-10 14:10:00,46.9,46.1,29.85,NW,315,5.0,12.0,97,0.00,,---,0.17,VWS V14.01,2013-05-10 18:10:00,
2013-05-10 14:15:00,46.9,46.1,29.85,WNW,285,7.0,13.0,97,0.00,,---,0.17,VWS V14.01,2013-05-10 18:15:00,
2013-05-10 14:21:00,46.9,46.1,29.85,WNW,287,5.0,13.0,97,0.00,,---,0.17,VWS V14.01,2013-05-10 18:21:00,
2013-05-10 14:26:00,46.5,45.4,29.85,NW,311,3.0,13.0,96,0.00,,---,0.17,VWS V14.01,2013-05-10 18:26:00,
2013-05-10 14:30:00,46.2,45.1,29.85,NW,316,10.0,13.0,96,0.00,,---,0.17,VWS V14.01,2013-05-10 18:30:00,
2013-05-10 14:31:00,46.2,45.1,29.86,West,273,8.0,12.0,96,0.00,,---,0.17,VWS V14.01,2013-05-10 18:31:00,
2013-05-10 14:36:00,46.2,45.4,29.86,NW,309,14.0,14.0,97,0.00,,---,0.17,VWS V14.01,2013-05-10 18:36:00,
2013-05-10 14:41:00,45.9,45.1,29.86,WNW,287,5.0,14.0,97,0.00,,---,0.17,VWS V14.01,2013-05-10 18:41:00,
2013-05-10 14:47:00,46.1,45.3,29.86,NNW,339,3.0,14.0,97,0.00,,---,0.17,VWS V14.01,2013-05-10 18:47:00,
2013-05-10 14:52:00,46.0,45.2,29.86,North,8,2.0,17.0,97,0.00,,---,0.17,VWS V14.01,2013-05-10 18:52:00,
2013-05-10 14:57:00,46.1,45.3,29.86,NW,305,10.0,17.0,97,0.00,,---,0.17,VWS V14.01,2013-05-10 18:57:00,
2013-05-10 15:00:00,45.9,45.1,29.86,NNW,328,3.0,17.0,97,0.00,,---,0.17,VWS V14.01,2013-05-10 19:00:00,
2013-05-10 15:02:00,45.9,45.1,29.86,West,260,6.0,8.0,97,0.00,,---,0.17,VWS V14.01,2013-05-10 19:02:00,
2013-05-10 15:07:00,45.8,45.0,29.86,NW,323,6.0,16.0,97,0.00,,---,0.17,VWS V14.01,2013-05-10 19:07:00,
2013-05-10 15:13:00,45.5,44.7,29.86,NW,314,7.0,16.0,97,0.00,,---,0.17,VWS V14.01,2013-05-10 19:13:00,
2013-05-10 15:18:00,45.6,44.8,29.86,NW,309,5.0,16.0,97,0.00,,---,0.17,VWS V14.01,2013-05-10 19:18:00,
2013-05-10 15:23:00,45.2,44.4,29.87,North,7,8.0,16.0,97,0.00,,---,0.17,VWS V14.01,2013-05-10 19:23:00,
2013-05-10 15:28:00,45.0,44.2,29.87,West,281,8.0,16.0,97,0.00,,---,0.17,VWS V14.01,2013-05-10 19:28:00,
2013-05-10 15:30:00,45.0,44.2,29.87,NW,311,8.0,16.0,97,0.00,,---,0.17,VWS V14.01,2013-05-10 19:30:00,
2013-05-10 15:33:00,44.9,44.1,29.87,WNW,288,2.0,14.0,97,0.00,,---,0.17,VWS V14.01,2013-05-10 19:33:00,
2013-05-10 15:39:00,44.8,44.3,29.87,NNW,327,5.0,16.0,98,0.00,,---,0.17,VWS V14.01,2013-05-10 19:39:00,
2013-05-10 15:44:00,44.6,44.1,29.87,NW,326,6.0,16.0,98,0.00,,---,0.17,VWS V14.01,2013-05-10 19:44:00,
2013-05-10 15:49:00,44.5,44.0,29.86,NW,316,3.0,16.0,98,0.00,,---,0.17,VWS V14.01,2013-05-10 19:49:00,
2013-05-10 15:54:00,44.6,44.1,29.86,North,353,5.0,16.0,98,0.00,,---,0.17,VWS V14.01,2013-05-10 19:54:00,
2013-05-10 15:59:00,44.7,44.2,29.86,North,5,11.0,19.0,98,0.00,,---,0.17,VWS V14.01,2013-05-10 19:59:00,
2013-05-10 16:00:00,44.7,44.2,29.86,NW,304,8.0,19.0,98,0.00,,---,0.17,VWS V14.01,2013-05-10 20:00:00,
2013-05-10 16:05:00,44.5,44.0,29.86,NNW,332,12.0,14.0,98,0.00,,---,0.17,VWS V14.01,2013-05-10 20:05:00,
2013-05-10 16:10:00,44.5,44.0,29.87,NNW,338,10.0,15.0,98,0.00,,---,0.17,VWS V14.01,2013-05-10 20:10:00,
2013-05-10 16:15:00,44.5,44.0,29.87,NNW,339,12.0,16.0,98,0.00,,---,0.17,VWS V14.01,2013-05-10 20:15:00,
2013-05-10 16:20:00,44.6,44.1,29.87,NNW,333,7.0,16.0,98,0.00,,---,0.17,VWS V14.01,2013-05-10 20:20:00,
2013-05-10 16:25:00,44.5,44.0,29.87,NNW,338,9.0,16.0,98,0.00,,---,0.17,VWS V14.01,2013-05-10 20:25:00,
2013-05-10 16:30:00,44.4,43.9,29.87,NW,326,7.0,16.0,98,0.00,,---,0.17,VWS V14.01,2013-05-10 20:30:00,
2013-05-10 16:31:00,44.4,43.9,29.87,NW,316,6.0,12.0,98,0.00,,---,0.17,VWS V14.01,2013-05-10 20:31:00,
2013-05-10 16:36:00,44.4,43.9,29.87,NNW,328,8.0,15.0,98,0.00,,---,0.17,VWS V14.01,2013-05-10 20:36:00,
2013-05-10 16:41:00,44.3,43.8,29.87,NNW,347,16.0,16.0,98,0.00,,---,0.17,VWS V14.01,2013-05-10 20:41:00,
2013-05-10 16:46:00,44.2,43.7,29.87,NW,321,5.0,16.0,98,0.00,,---,0.17,VWS V14.01,2013-05-10 20:46:00,
2013-05-10 16:52:00,44.2,43.7,29.87,NW,316,6.0,16.0,98,0.00,,---,0.17,VWS V14.01,2013-05-10 20:52:00,
2013-05-10 16:57:00,44.1,43.6,29.87,NW,312,5.0,17.0,98,0.00,,---,0.17,VWS V14.01,2013-05-10 20:57:00,
2013-05-10 17:00:00,44.1,43.8,29.87,NNW,346,10.0,17.0,99,0.00,,---,0.17,VWS V14.01,2013-05-10 21:00:00,
2013-05-10 17:02:00,44.1,43.6,29.87,NW,307,8.0,10.0,98,0.00,,---,0.17,VWS V14.01,2013-05-10 21:02:00,
2013-05-10 17:07:00,44.0,43.5,29.87,NNW,343,13.0,15.0,98,0.00,,---,0.17,VWS V14.01,2013-05-10 21:07:00,
2013-05-10 17:12:00,43.9,43.4,29.87,NW,318,12.0,15.0,98,0.00,,---,0.17,VWS V14.01,2013-05-10 21:12:00,
2013-05-10 17:18:00,43.9,43.6,29.87,NNW,330,11.0,18.0,99,0.00,,---,0.17,VWS V14.01,2013-05-10 21:18:00,
2013-05-10 17:23:00,43.9,43.6,29.87,NW,309,11.0,18.0,99,0.00,,---,0.17,VWS V14.01,2013-05-10 21:23:00,
2013-05-10 17:28:00,44.1,43.8,29.87,NNW,328,10.0,18.0,99,0.00,,---,0.17,VWS V14.01,2013-05-10 21:28:00,
2013-05-10 17:30:00,44.0,43.7,29.87,NW,314,4.0,18.0,99,0.00,,---,0.17,VWS V14.01,2013-05-10 21:30:00,
2013-05-10 17:33:00,44.0,43.7,29.87,NW,314,8.0,13.0,99,0.00,,---,0.17,VWS V14.01,2013-05-10 21:33:00,
2013-05-10 17:38:00,43.9,43.6,29.88,NNW,327,6.0,13.0,99,0.00,,---,0.17,VWS V14.01,2013-05-10 21:38:00,
2013-05-10 17:44:00,43.9,43.6,29.87,NW,315,10.0,13.0,99,0.00,,---,0.17,VWS V14.01,2013-05-10 21:44:00,
2013-05-10 17:49:00,43.9,43.6,29.88,WNW,294,6.0,13.0,99,0.00,,---,0.17,VWS V14.01,2013-05-10 21:49:00,
2013-05-10 17:54:00,43.9,43.6,29.88,NNW,334,5.0,13.0,99,0.00,,---,0.17,VWS V14.01,2013-05-10 21:54:00,
2013-05-10 17:59:00,44.0,43.7,29.88,NW,321,7.0,13.0,99,0.00,,---,0.17,VWS V14.01,2013-05-10 21:59:00,
2013-05-10 18:00:00,44.1,43.8,29.88,NW,309,8.0,13.0,99,0.00,,---,0.17,VWS V14.01,2013-05-10 22:00:00,
2013-05-10 18:04:00,44.3,44.0,29.88,NNW,336,4.0,9.0,99,0.00,,---,0.17,VWS V14.01,2013-05-10 22:04:00,
2013-05-10 18:10:00,44.3,44.0,29.88,NW,315,6.0,10.0,99,0.00,,---,0.17,VWS V14.01,2013-05-10 22:10:00,
2013-05-10 18:15:00,44.4,44.1,29.88,NNW,327,7.0,12.0,99,0.00,,---,0.17,VWS V14.01,2013-05-10 22:15:00,
2013-05-10 18:20:00,44.3,44.0,29.88,NW,322,11.0,13.0,99,0.00,,---,0.17,VWS V14.01,2013-05-10 22:20:00,
2013-05-10 18:25:00,44.5,44.2,29.88,NNW,336,6.0,13.0,99,0.00,,---,0.17,VWS V14.01,2013-05-10 22:25:00,
2013-05-10 18:30:00,44.6,44.3,29.88,NW,318,8.0,13.0,99,0.00,,---,0.17,VWS V14.01,2013-05-10 22:30:00,
2013-05-10 18:36:00,44.5,44.2,29.88,NNW,342,7.0,12.0,99,0.00,,---,0.17,VWS V14.01,2013-05-10 22:36:00,
2013-05-10 18:41:00,44.4,44.1,29.88,NNW,328,6.0,12.0,99,0.00,,---,0.17,VWS V14.01,2013-05-10 22:41:00,
2013-05-10 18:46:00,44.4,44.1,29.88,NNW,332,9.0,12.0,99,0.00,,---,0.17,VWS V14.01,2013-05-10 22:46:00,
2013-05-10 18:51:00,44.2,43.9,29.88,NW,312,5.0,13.0,99,0.00,,---,0.17,VWS V14.01,2013-05-10 22:51:00,
2013-05-10 18:56:00,44.2,43.9,29.88,NW,311,11.0,13.0,99,0.00,,---,0.17,VWS V14.01,2013-05-10 22:56:00,
2013-05-10 19:00:00,44.1,43.8,29.88,North,354,5.0,13.0,99,0.00,,---,0.17,VWS V14.01,2013-05-10 23:00:00,
2013-05-10 19:02:00,44.1,43.8,29.88,NW,326,11.0,13.0,99,0.00,,---,0.17,VWS V14.01,2013-05-10 23:02:00,
2013-05-10 19:07:00,44.0,43.7,29.88,NW,314,7.0,13.0,99,0.00,,---,0.17,VWS V14.01,2013-05-10 23:07:00,
2013-05-10 19:12:00,43.9,43.6,29.89,North,5,5.0,13.0,99,0.00,,---,0.17,VWS V14.01,2013-05-10 23:12:00,
2013-05-10 19:17:00,43.8,43.5,29.89,NW,325,3.0,13.0,99,0.00,,---,0.17,VWS V14.01,2013-05-10 23:17:00,
2013-05-10 19:23:00,43.8,43.5,29.89,NNW,338,8.0,13.0,99,0.00,,---,0.17,VWS V14.01,2013-05-10 23:23:00,
2013-05-10 19:28:00,43.6,43.3,29.89,NW,318,12.0,13.0,99,0.00,,---,0.17,VWS V14.01,2013-05-10 23:28:00,
2013-05-10 19:30:00,43.5,43.2,29.89,NW,325,6.0,13.0,99,0.00,,---,0.17,VWS V14.01,2013-05-10 23:30:00,
2013-05-10 19:33:00,43.5,43.2,29.89,NNW,334,6.0,13.0,99,0.00,,---,0.17,VWS V14.01,2013-05-10 23:33:00,
2013-05-10 19:38:00,43.4,43.1,29.89,North,349,5.0,14.0,99,0.00,,---,0.17,VWS V14.01,2013-05-10 23:38:00,
2013-05-10 19:43:00,43.1,42.8,29.89,NNW,332,7.0,14.0,99,0.00,,---,0.17,VWS V14.01,2013-05-10 23:43:00,
2013-05-10 19:49:00,43.0,42.7,29.89,NNW,328,10.0,16.0,99,0.00,,---,0.17,VWS V14.01,2013-05-10 23:49:00,
2013-05-10 19:54:00,42.7,42.4,29.89,NNW,343,14.0,16.0,99,0.00,,---,0.17,VWS V14.01,2013-05-10 23:54:00,
2013-05-10 19:59:00,42.7,42.4,29.90,NW,304,10.0,16.0,99,0.00,,---,0.17,VWS V14.01,2013-05-10 23:59:00,
2013-05-10 20:00:00,42.6,42.3,29.90,NNW,330,9.0,16.0,99,0.00,,---,0.17,VWS V14.01,2013-05-11 00:00:00,
2013-05-10 20:04:00,42.6,42.3,29.90,WNW,302,8.0,12.0,99,0.00,,---,0.17,VWS V14.01,2013-05-11 00:04:00,
2013-05-10 20:10:00,42.5,42.2,29.91,NW,321,14.0,16.0,99,0.00,,---,0.17,VWS V14.01,2013-05-11 00:10:00,
2013-05-10 20:15:00,42.3,42.0,29.91,NW,326,10.0,16.0,99,0.00,,---,0.17,VWS V14.01,2013-05-11 00:15:00,
2013-05-10 20:20:00,42.3,42.0,29.90,NNW,340,12.0,16.0,99,0.00,,---,0.17,VWS V14.01,2013-05-11 00:20:00,
2013-05-10 20:25:00,42.2,41.9,29.91,NW,304,10.0,16.0,99,0.00,,---,0.17,VWS V14.01,2013-05-11 00:25:00,
2013-05-10 20:30:00,42.1,41.8,29.91,NW,325,11.0,16.0,99,0.00,,---,0.17,VWS V14.01,2013-05-11 00:30:00,
2013-05-10 20:36:00,42.0,41.7,29.91,NW,314,6.0,13.0,99,0.00,,---,0.17,VWS V14.01,2013-05-11 00:36:00,
2013-05-10 20:41:00,42.0,41.7,29.91,NW,326,6.0,13.0,99,0.00,,---,0.17,VWS V14.01,2013-05-11 00:41:00,
2013-05-10 20:46:00,41.9,41.6,29.92,NW,325,9.0,13.0,99,0.00,,---,0.17,VWS V14.01,2013-05-11 00:46:00,
2013-05-10 20:51:00,41.9,41.6,29.92,NNW,342,6.0,13.0,99,0.00,,---,0.17,VWS V14.01,2013-05-11 00:51:00,
2013-05-10 20:56:00,41.7,41.4,29.92,NNW,327,6.0,13.0,99,0.00,,---,0.17,VWS V14.01,2013-05-11 00:56:00,
2013-05-10 21:00:00,41.7,41.4,29.92,NW,322,7.0,13.0,99,0.00,,---,0.17,VWS V14.01,2013-05-11 01:00:00,
2013-05-10 21:02:00,41.7,41.4,29.92,NW,314,6.0,11.0,99,0.00,,---,0.17,VWS V14.01,2013-05-11 01:02:00,
2013-05-10 21:07:00,41.8,41.5,29.92,NNW,333,3.0,11.0,99,0.00,,---,0.17,VWS V14.01,2013-05-11 01:07:00,
2013-05-10 21:12:00,41.7,41.4,29.93,NNW,344,6.0,13.0,99,0.00,,---,0.17,VWS V14.01,2013-05-11 01:12:00,
2013-05-10 21:17:00,41.8,41.5,29.93,NNW,338,9.0,13.0,99,0.00,,---,0.17,VWS V14.01,2013-05-11 01:17:00,
2013-05-10 21:23:00,41.7,41.4,29.93,NNW,338,4.0,13.0,99,0.00,,---,0.17,VWS V14.01,2013-05-11 01:23:00,
2013-05-10 21:28:00,41.7,41.4,29.93,NW,312,4.0,13.0,99,0.00,,---,0.17,VWS V14.01,2013-05-11 01:28:00,
2013-05-10 21:30:00,41.8,41.5,29.93,North,354,3.0,13.0,99,0.00,,---,0.17,VWS V14.01,2013-05-11 01:30:00,
2013-05-10 21:33:00,41.8,41.5,29.93,NNW,332,6.0,10.0,99,0.00,,---,0.17,VWS V14.01,2013-05-11 01:33:00,
2013-05-10 21:38:00,41.9,41.6,29.93,NW,308,5.0,10.0,99,0.00,,---,0.17,VWS V14.01,2013-05-11 01:38:00,
2013-05-10 21:43:00,41.9,41.6,29.93,NNW,335,6.0,10.0,99,0.00,,---,0.17,VWS V14.01,2013-05-11 01:43:00,
2013-05-10 21:49:00,41.8,41.5,29.93,NW,319,10.0,12.0,99,0.00,,---,0.17,VWS V14.01,2013-05-11 01:49:00,
2013-05-10 21:54:00,41.8,41.5,29.93,NNW,327,4.0,12.0,99,0.00,,---,0.17,VWS V14.01,2013-05-11 01:54:00,
2013-05-10 21:59:00,41.9,41.6,29.93,NNE,12,5.0,12.0,99,0.00,,---,0.17,VWS V14.01,2013-05-11 01:59:00,
2013-05-10 22:00:00,41.9,41.6,29.93,NW,323,4.0,12.0,99,0.00,,---,0.17,VWS V14.01,2013-05-11 02:00:00,
2013-05-10 22:04:00,42.0,41.7,29.93,NNW,333,3.0,6.0,99,0.00,,---,0.17,VWS V14.01,2013-05-11 02:04:00,
2013-05-10 22:09:00,42.1,41.8,29.93,NNW,342,5.0,10.0,99,0.00,,---,0.17,VWS V14.01,2013-05-11 02:09:00,
2013-05-10 22:15:00,42.1,41.8,29.93,North,359,6.0,10.0,99,0.00,,---,0.17,VWS V14.01,2013-05-11 02:15:00,
2013-05-10 22:20:00,42.1,41.8,29.94,NW,307,4.0,10.0,99,0.00,,---,0.17,VWS V14.01,2013-05-11 02:20:00,
2013-05-10 22:25:00,42.0,41.7,29.94,NW,323,6.0,10.0,99,0.00,,---,0.17,VWS V14.01,2013-05-11 02:25:00,
2013-05-10 22:30:00,42.0,41.7,29.94,NNW,343,5.0,10.0,99,0.00,,---,0.17,VWS V14.01,2013-05-11 02:30:00,
2013-05-10 22:35:00,42.0,41.7,29.94,NNW,344,5.0,9.0,99,0.00,,---,0.17,VWS V14.01,2013-05-11 02:35:00,
2013-05-10 22:41:00,42.0,41.7,29.94,NW,326,4.0,9.0,99,0.00,,---,0.17,VWS V14.01,2013-05-11 02:41:00,
2013-05-10 22:46:00,42.0,41.7,29.94,NW,318,6.0,9.0,99,0.00,,---,0.17,VWS V14.01,2013-05-11 02:46:00,
2013-05-10 22:51:00,41.9,41.6,29.94,NW,325,3.0,9.0,99,0.00,,---,0.17,VWS V14.01,2013-05-11 02:51:00,
2013-05-10 22:56:00,41.9,41.6,29.94,NW,325,5.0,9.0,99,0.00,,---,0.17,VWS V14.01,2013-05-11 02:56:00,
2013-05-10 23:00:00,41.9,41.6,29.94,NW,305,6.0,9.0,99,0.00,,---,0.17,VWS V14.01,2013-05-11 03:00:00,
2013-05-10 23:01:00,41.9,41.6,29.94,NW,319,6.0,8.0,99,0.00,,---,0.17,VWS V14.01,2013-05-11 03:01:00,
2013-05-10 23:07:00,41.9,41.6,29.93,NNW,327,6.0,8.0,99,0.00,,---,0.17,VWS V14.01,2013-05-11 03:07:00,
2013-05-10 23:12:00,42.0,41.7,29.93,NNW,345,3.0,8.0,99,0.00,,---,0.17,VWS V14.01,2013-05-11 03:12:00,
2013-05-10 23:17:00,42.1,42.1,29.93,NW,308,5.0,8.0,100,0.00,,---,0.17,VWS V14.01,2013-05-11 03:17:00,
2013-05-10 23:22:00,42.1,42.1,29.93,NW,320,4.0,8.0,100,0.00,,---,0.17,VWS V14.01,2013-05-11 03:22:00,
2013-05-10 23:27:00,42.1,42.1,29.93,NNW,338,6.0,8.0,100,0.00,,---,0.17,VWS V14.01,2013-05-11 03:27:00,
2013-05-10 23:30:00,42.1,42.1,29.93,NW,312,2.0,8.0,100,0.00,,---,0.17,VWS V14.01,2013-05-11 03:30:00,
2013-05-10 23:33:00,42.1,42.1,29.93,NW,319,3.0,6.0,100,0.00,,---,0.17,VWS V14.01,2013-05-11 03:33:00,
2013-05-10 23:38:00,42.2,42.2,29.94,NNW,338,3.0,7.0,100,0.00,,---,0.17,VWS V14.01,2013-05-11 03:38:00,
2013-05-10 23:43:00,42.2,42.2,29.94,NNW,328,3.0,7.0,100,0.00,,---,0.17,VWS V14.01,2013-05-11 03:43:00,
2013-05-10 23:48:00,42.2,42.2,29.94,NW,316,4.0,8.0,100,0.00,,---,0.17,VWS V14.01,2013-05-11 03:48:00,
2013-05-10 23:54:00,42.3,42.3,29.93,NNW,336,5.0,8.0,100,0.00,,---,0.17,VWS V14.01,2013-05-11 03:54:00,
2013-05-10 23:59:00,42.3,42.3,29.93,NW,320,4.0,8.0,100,0.00,,---,0.17,VWS V14.01,2013-05-11 03:59:00,